TimeGMT,TemperatureF,Dew PointF,Humidity,Sea Level PressureIn,VisibilityMPH,Wind Direction,Wind SpeedMPH,Gust SpeedMPH,PrecipitationIn,Events,Conditions,WindDirDegrees,DateUTC
12:50 AM,42.8,41.0,93,30.51,6.2,NW,1.2,-,N/A,,Unknown,310,2013-01-06 00:50:00
1:50 AM,41.0,39.2,93,30.48,2.8,South,2.3,-,N/A,,Partly Cloudy,170,2013-01-06 01:50:00
2:50 AM,40,38,91,30.53,1,NW,2.3,,,,Scattered Clouds,310,2013-01-06 02:50:00
2:50 AM,39.2,39.2,100,30.51,1.3,NW,2.3,-,N/A,,Partly Cloudy,310,2013-01-06 02:50:00
3:50 AM,42.8,42.8,100,30.51,-9999.0,WNW,5.8,-,N/A,,Mostly Cloudy,300,2013-01-06 03:50:00
4:50 AM,44.6,42.8,93,30.51,3.1,WNW,6.9,-,N/A,,Mostly Cloudy,300,2013-01-06 04:50:00
5:50 AM,45,44,92,30.52,1,SW,2.3,,,,Overcast,220,2013-01-06 05:50:00
5:50 AM,44.6,42.8,93,30.51,0.6,SW,2.3,-,N/A,,Overcast,220,2013-01-06 05:50:00
6:50 AM,44.6,42.8,93,30.51,0.6,WSW,3.5,-,N/A,,Mostly Cloudy,240,2013-01-06 06:50:00
7:50 AM,44.6,42.8,93,30.51,0.2,WSW,1.2,-,N/A,Fog,Fog,240,2013-01-06 07:50:00
8:50 AM,45,44,95,30.52,0,Calm,Calm,,,Fog,Partial Fog,,2013-01-06 08:50:00
8:50 AM,44.6,44.6,100,30.51,0.2,Calm,Calm,-,N/A,Fog,Fog,0,2013-01-06 08:50:00
9:50 AM,46.4,44.6,93,30.51,0.4,SSW,2.3,-,N/A,Fog,Fog,210,2013-01-06 09:50:00
10:50 AM,46.4,46.4,100,30.51,0.7,SSW,4.6,-,N/A,,Overcast,200,2013-01-06 10:50:00
11:50 AM,46,45,93,30.51,1,South,5.8,,,,Mist,190,2013-01-06 11:50:00
11:50 AM,46.4,44.6,93,30.48,0.6,South,5.8,-,N/A,,Overcast,190,2013-01-06 11:50:00
12:50 PM,46.4,44.6,93,30.48,2.5,SSW,4.6,-,N/A,,Overcast,210,2013-01-06 12:50:00
1:50 PM,46.4,44.6,93,30.45,6.2,SSW,4.6,-,N/A,,Overcast,210,2013-01-06 13:50:00
2:50 PM,46.4,44.6,93,30.45,5.0,SSW,5.8,-,N/A,,Haze,210,2013-01-06 14:50:00
3:50 PM,46.4,42.8,87,30.42,6.2,WSW,4.6,-,N/A,,Mostly Cloudy,240,2013-01-06 15:50:00
4:50 PM,46.4,42.8,87,30.42,5.6,South,4.6,-,N/A,,Haze,190,2013-01-06 16:50:00
5:50 PM,46,43,87,30.43,7,SSE,3.5,,,,Mostly Cloudy,160,2013-01-06 17:50:00
5:50 PM,46.4,42.8,87,30.42,6.2,SSE,3.5,-,N/A,,Mostly Cloudy,160,2013-01-06 17:50:00
6:50 PM,46.4,44.6,93,30.42,6.2,SSW,3.5,-,N/A,,Overcast,200,2013-01-06 18:50:00
7:50 PM,48.2,44.6,87,30.39,6.2,SSW,5.8,-,N/A,,Overcast,210,2013-01-06 19:50:00
8:50 PM,47,44,86,30.42,7,SW,5.8,,,,Overcast,230,2013-01-06 20:50:00
8:50 PM,48.2,44.6,87,30.39,6.2,SW,5.8,-,N/A,,Overcast,230,2013-01-06 20:50:00
9:50 PM,48.2,44.6,87,30.39,6.2,SW,5.8,-,N/A,,Overcast,220,2013-01-06 21:50:00
10:50 PM,48.2,44.6,87,30.39,6.2,WSW,4.6,-,N/A,,Overcast,250,2013-01-06 22:50:00
11:50 PM,47,43,82,30.41,14,SW,6.9,,,,Mostly Cloudy,220,2013-01-06 23:50:00
11:50 PM,46.4,42.8,87,30.39,6.2,SW,6.9,-,N/A,,Mostly Cloudy,220,2013-01-06 23:50:00